Radiation Dose at Monitoring Post of Fukushima Daini Nuclear Power Station
Date,Time,MP-1(microSv/h),MP-2(microSv/h),MP-3(microSv/h),MP-4(microSv/h),MP-5(microSv/h),MP-6(microSv/h),MP-7(microSv/h),Wind Direction,Wind Velocity(m/s),Rain
2022/07/27,00:00,0.152,0.142,0.226,0.215,0.214,0.122,0.080,south,1.8,Yes
2022/07/27,00:10,0.151,0.144,0.224,0.218,0.214,0.121,0.080,south-southwest,1.0,Yes
2022/07/27,00:20,0.153,0.142,0.223,0.216,0.217,0.121,0.078,south-southwest,0.6,Yes
2022/07/27,00:30,0.154,0.142,0.225,0.216,0.217,0.121,0.079,-,CALM,Yes
2022/07/27,00:40,0.151,0.143,0.225,0.216,0.216,0.121,0.079,-,CALM,Yes
2022/07/27,00:50,0.151,0.143,0.223,0.217,0.213,0.120,0.079,-,CALM,Yes
2022/07/27,01:00,0.153,0.141,0.221,0.217,0.218,0.120,0.078,-,CALM,No
2022/07/27,01:10,0.153,0.143,0.225,0.215,0.216,0.120,0.078,-,CALM,No
2022/07/27,01:20,0.150,0.143,0.224,0.215,0.214,0.120,0.077,-,CALM,No
2022/07/27,01:30,0.150,0.141,0.222,0.218,0.213,0.120,0.078,north-northeast,1.1,Yes
2022/07/27,01:40,0.153,0.141,0.223,0.216,0.216,0.119,0.078,north-northwest,0.8,Yes
2022/07/27,01:50,0.151,0.142,0.223,0.213,0.217,0.120,0.078,north-northeast,1.0,Yes
2022/07/27,02:00,0.151,0.142,0.224,0.218,0.215,0.122,0.079,north,1.8,Yes
2022/07/27,02:10,0.152,0.142,0.222,0.217,0.215,0.122,0.079,north,7.5,Yes
2022/07/27,02:20,0.152,0.144,0.226,0.215,0.219,0.122,0.080,north-northeast,2.7,Yes
2022/07/27,02:30,0.152,0.144,0.226,0.214,0.218,0.123,0.081,-,CALM,Yes
2022/07/27,02:40,0.151,0.143,0.223,0.218,0.216,0.122,0.081,north,0.9,Yes
2022/07/27,02:50,0.152,0.143,0.223,0.215,0.214,0.122,0.079,-,CALM,Yes
2022/07/27,03:00,0.151,0.143,0.224,0.214,0.218,0.120,0.079,-,CALM,No
2022/07/27,03:10,0.150,0.141,0.221,0.215,0.215,0.121,0.078,-,CALM,No
2022/07/27,03:20,0.151,0.141,0.219,0.215,0.214,0.121,0.078,south,0.7,No
2022/07/27,03:30,0.151,0.142,0.222,0.215,0.214,0.120,0.077,south,1.0,No
2022/07/27,03:40,0.150,0.140,0.221,0.212,0.215,0.119,0.078,south-southwest,1.3,No
2022/07/27,03:50,0.148,0.140,0.218,0.213,0.214,0.119,0.078,south,1.9,No
2022/07/27,04:00,0.149,0.140,0.220,0.213,0.212,0.119,0.077,south,2.2,Yes
2022/07/27,04:10,0.150,0.140,0.221,0.211,0.214,0.116,0.076,south,3.2,Yes
2022/07/27,04:20,0.148,0.139,0.218,0.211,0.216,0.118,0.077,south,3.2,Yes
2022/07/27,04:30,0.148,0.138,0.216,0.212,0.211,0.118,0.076,south,2.4,No
2022/07/27,04:40,0.150,0.140,0.219,0.213,0.211,0.118,0.076,south,2.7,No
2022/07/27,04:50,0.148,0.139,0.220,0.210,0.214,0.117,0.077,south,2.4,No
2022/07/27,05:00,0.148,0.138,0.218,0.212,0.214,0.118,0.077,south-southwest,1.9,No
2022/07/27,05:10,0.149,0.140,0.219,0.212,0.211,0.118,0.076,south,1.7,No
2022/07/27,05:20,0.149,0.140,0.220,0.211,0.211,0.117,0.076,south-southwest,1.8,No
2022/07/27,05:30,0.148,0.139,0.217,0.210,0.215,0.117,0.077,south-southwest,1.5,No
2022/07/27,05:40,0.147,0.138,0.218,0.212,0.213,0.118,0.076,south,0.9,No
2022/07/27,05:50,0.150,0.140,0.219,0.212,0.212,0.118,0.076,west-southwest,0.7,No
2022/07/27,06:00,0.149,0.139,0.219,0.212,0.211,0.118,0.075,southwest,0.7,No
2022/07/27,06:10,0.148,0.138,0.216,0.211,0.214,0.118,0.076,south,1.1,No
2022/07/27,06:20,0.147,0.138,0.218,0.212,0.214,0.117,0.077,south,1.7,No
2022/07/27,06:30,0.149,0.139,0.222,0.212,0.213,0.120,0.076,south-southeast,0.7,No
2022/07/27,06:40,0.148,0.139,0.219,0.211,0.210,0.117,0.076,south-southwest,1.4,No
2022/07/27,06:50,0.148,0.139,0.218,0.210,0.210,0.117,0.076,south,2.1,No
2022/07/27,07:00,0.148,0.138,0.216,0.209,0.210,0.117,0.076,south-southeast,2.1,No
2022/07/27,07:10,0.146,0.138,0.215,0.208,0.210,0.118,0.076,south,3.2,No
2022/07/27,07:20,0.147,0.138,0.216,0.209,0.212,0.118,0.075,south,2.9,No
2022/07/27,07:30,0.149,0.138,0.216,0.210,0.215,0.117,0.075,south,3.1,No
2022/07/27,07:40,0.148,0.138,0.217,0.208,0.213,0.117,0.075,south-southeast,2.6,No
2022/07/27,07:50,0.146,0.138,0.216,0.209,0.213,0.117,0.075,south-southeast,3.5,No
2022/07/27,08:00,0.147,0.138,0.218,0.211,0.212,0.117,0.076,south-southeast,3.2,No
2022/07/27,08:10,0.146,0.137,0.216,0.210,0.213,0.117,0.076,south,3.3,No
2022/07/27,08:20,0.146,0.137,0.218,0.211,0.213,0.117,0.075,south,4.4,No
2022/07/27,08:30,0.146,0.138,0.218,0.211,0.212,0.117,0.075,south,4.2,No
2022/07/27,08:40,0.147,0.138,0.218,0.211,0.213,0.117,0.075,south,3.5,No
2022/07/27,08:50,0.146,0.138,0.219,0.212,0.213,0.117,0.075,south,3.3,No
2022/07/27,09:00,0.147,0.137,0.220,0.211,0.212,0.117,0.076,south-southeast,4.2,No
2022/07/27,09:10,0.146,0.138,0.219,0.212,0.213,0.118,0.075,south,4.7,No
2022/07/27,09:20,0.147,0.138,0.217,0.212,0.213,0.118,0.076,south,4.5,No
2022/07/27,09:30,0.147,0.139,0.217,0.212,0.212,0.117,0.076,south-southeast,5.6,No
2022/07/27,09:40,0.148,0.139,0.218,0.210,0.212,0.118,0.076,south-southeast,6.0,No
2022/07/27,09:50,0.148,0.136,0.219,0.211,0.212,0.118,0.076,south-southeast,6.1,No
2022/07/27,10:00,0.147,0.138,0.219,0.211,0.213,0.117,0.076,south-southeast,5.5,No
2022/07/27,10:10,0.148,0.139,0.218,0.212,0.213,0.119,0.076,south-southeast,5.4,No
2022/07/27,10:20,0.146,0.138,0.218,0.211,0.213,0.118,0.075,south-southeast,5.2,No
2022/07/27,10:30,0.148,0.138,0.218,0.212,0.213,0.119,0.076,south,4.7,No
2022/07/27,10:40,0.148,0.139,0.214,0.212,0.214,0.119,0.076,south,5.0,No
2022/07/27,10:50,0.148,0.139,0.218,0.211,0.214,0.119,0.076,south,4.2,No
2022/07/27,11:00,0.147,0.139,0.218,0.212,0.213,0.118,0.075,south,4.3,No
2022/07/27,11:10,0.148,0.139,0.219,0.212,0.214,0.117,0.075,south,4.4,No
2022/07/27,11:20,0.147,0.138,0.218,0.212,0.214,0.116,0.076,south,4.5,No
2022/07/27,11:30,0.149,0.139,0.219,0.212,0.214,0.118,0.075,south,4.5,No
2022/07/27,11:40,0.148,0.139,0.220,0.208,0.213,0.119,0.075,south,4.3,No
2022/07/27,11:50,0.148,0.139,0.219,0.212,0.213,0.119,0.076,south,4.3,Yes
2022/07/27,12:00,0.149,0.139,0.218,0.213,0.212,0.118,0.076,south-southeast,3.3,Yes
2022/07/27,12:10,0.149,0.139,0.219,0.213,0.212,0.119,0.076,south,4.1,Yes
2022/07/27,12:20,0.148,0.139,0.219,0.213,0.213,0.119,0.075,south,4.0,No
2022/07/27,12:30,0.148,0.139,0.220,0.212,0.214,0.117,0.076,south,3.7,No
2022/07/27,12:40,0.148,0.139,0.218,0.213,0.213,0.119,0.075,south,2.2,Yes
2022/07/27,12:50,0.149,0.139,0.217,0.210,0.212,0.119,0.076,-,CALM,Yes
2022/07/27,13:00,0.147,0.139,0.217,0.207,0.210,0.120,0.077,northeast,11.4,Yes
2022/07/27,13:10,0.150,0.140,0.216,0.205,0.211,0.120,0.080,east-southeast,2.6,Yes
2022/07/27,13:20,0.152,0.142,0.215,0.206,0.214,0.123,0.082,south-southeast,1.9,Yes
2022/07/27,13:30,0.152,0.144,0.218,0.214,0.221,0.124,0.084,north,1.0,Yes
2022/07/27,13:40,0.151,0.143,0.221,0.215,0.221,0.123,0.083,north-northeast,1.4,Yes
2022/07/27,13:50,0.151,0.142,0.220,0.213,0.219,0.121,0.081,north-northeast,2.0,No
2022/07/27,14:00,0.149,0.140,0.218,0.213,0.217,0.120,0.081,north,1.8,Yes
2022/07/27,14:10,0.148,0.139,0.216,0.210,0.214,0.119,0.079,north,1.5,Yes
2022/07/27,14:20,0.150,0.139,0.215,0.210,0.213,0.118,0.079,north,2.3,Yes
2022/07/27,14:30,0.149,0.137,0.214,0.209,0.213,0.117,0.079,north-northeast,1.8,Yes
2022/07/27,14:40,0.147,0.138,0.213,0.207,0.212,0.117,0.079,north-northeast,2.5,Yes
2022/07/27,14:50,0.146,0.139,0.214,0.209,0.211,0.117,0.078,north,2.1,Yes
2022/07/27,15:00,0.145,0.138,0.213,0.212,0.213,0.116,0.078,north-northwest,1.4,Yes
2022/07/27,15:10,0.145,0.138,0.217,0.209,0.213,0.116,0.077,northwest,1.2,Yes
2022/07/27,15:20,0.147,0.137,0.215,0.206,0.212,0.116,0.077,northeast,7.2,Yes
2022/07/27,15:30,0.146,0.137,0.210,0.202,0.209,0.118,0.079,-,CALM,Yes
2022/07/27,15:40,0.146,0.141,0.208,0.203,0.211,0.117,0.081,south-southwest,6.7,Yes
2022/07/27,15:50,0.147,0.144,0.214,0.208,0.219,0.121,0.084,south,4.7,Yes
2022/07/27,16:00,0.150,0.146,0.218,0.210,0.220,0.124,0.089,west-southwest,3.4,Yes
2022/07/27,16:10,0.151,0.149,0.218,0.210,0.220,0.128,0.091,-,CALM,Yes
2022/07/27,16:20,0.151,0.150,0.222,0.213,0.224,0.129,0.092,north-northeast,1.0,Yes
2022/07/27,16:30,0.154,0.150,0.224,0.216,0.225,0.128,0.093,southwest,1.8,Yes
2022/07/27,16:40,0.155,0.149,0.223,0.217,0.223,0.128,0.092,south-southwest,3.0,Yes
2022/07/27,16:50,0.153,0.151,0.222,0.218,0.223,0.129,0.091,south,3.1,Yes
2022/07/27,17:00,0.153,0.148,0.224,0.219,0.226,0.126,0.091,south-southwest,1.9,Yes
2022/07/27,17:10,0.154,0.147,0.222,0.216,0.221,0.124,0.089,southwest,2.1,Yes
2022/07/27,17:20,0.153,0.148,0.220,0.216,0.220,0.125,0.087,south-southeast,1.4,Yes
2022/07/27,17:30,0.152,0.147,0.224,0.219,0.222,0.126,0.087,south-southwest,1.3,Yes
2022/07/27,17:40,0.154,0.147,0.223,0.217,0.222,0.124,0.089,west-southwest,2.4,Yes
2022/07/27,17:50,0.155,0.146,0.222,0.214,0.219,0.124,0.088,west,2.5,Yes
2022/07/27,18:00,0.150,0.146,0.219,0.216,0.218,0.123,0.087,south,2.7,Yes
2022/07/27,18:10,0.149,0.144,0.220,0.216,0.220,0.121,0.085,south-southeast,4.5,Yes
2022/07/27,18:20,0.151,0.143,0.218,0.212,0.218,0.120,0.083,south-southeast,3.2,No
2022/07/27,18:30,0.149,0.143,0.215,0.210,0.215,0.118,0.082,south-southeast,1.9,No
2022/07/27,18:40,0.147,0.140,0.215,0.212,0.213,0.117,0.080,west,0.8,No
2022/07/27,18:50,0.146,0.138,0.216,0.209,0.216,0.116,0.080,south,1.7,No
2022/07/27,19:00,0.147,0.138,0.213,0.207,0.214,0.116,0.078,south,3.1,No
2022/07/27,19:10,0.146,0.139,0.211,0.208,0.211,0.116,0.078,south,2.0,No
2022/07/27,19:20,0.145,0.137,0.213,0.209,0.212,0.115,0.077,southwest,1.8,No
2022/07/27,19:30,0.145,0.136,0.214,0.208,0.211,0.114,0.077,south-southwest,1.5,No
2022/07/27,19:40,0.146,0.138,0.212,0.205,0.210,0.114,0.076,southwest,1.2,No
2022/07/27,19:50,0.145,0.136,0.211,0.208,0.209,0.114,0.076,-,CALM,No
2022/07/27,20:00,0.143,0.137,0.213,0.208,0.212,0.114,0.076,southwest,1.5,Yes
2022/07/27,20:10,0.144,0.136,0.212,0.205,0.212,0.113,0.076,southwest,0.6,Yes
2022/07/27,20:20,0.147,0.137,0.211,0.205,0.209,0.114,0.077,south,1.7,Yes
2022/07/27,20:30,0.144,0.137,0.213,0.208,0.211,0.115,0.077,west-southwest,1.4,Yes
2022/07/27,20:40,0.145,0.137,0.215,0.209,0.214,0.115,0.078,southwest,1.9,Yes
2022/07/27,20:50,0.147,0.140,0.214,0.209,0.215,0.117,0.081,southwest,0.8,Yes
2022/07/27,21:00,0.151,0.142,0.215,0.210,0.214,0.119,0.082,southwest,1.6,Yes
2022/07/27,21:10,0.149,0.142,0.218,0.212,0.214,0.120,0.083,west-southwest,0.6,Yes
2022/07/27,21:20,0.149,0.140,0.218,0.212,0.216,0.119,0.083,west-southwest,1.1,Yes
2022/07/27,21:30,0.150,0.142,0.216,0.209,0.215,0.119,0.081,west-southwest,2.7,No
2022/07/27,21:40,0.150,0.141,0.214,0.212,0.214,0.118,0.080,west,1.9,No
2022/07/27,21:50,0.147,0.139,0.216,0.211,0.212,0.117,0.080,northwest,1.4,No
2022/07/27,22:00,0.147,0.139,0.214,0.208,0.215,0.117,0.079,-,CALM,Yes
2022/07/27,22:10,0.147,0.139,0.211,0.208,0.213,0.116,0.078,south,1.4,Yes
2022/07/27,22:20,0.146,0.137,0.214,0.210,0.209,0.116,0.078,south-southwest,2.4,No
2022/07/27,22:30,0.145,0.137,0.213,0.207,0.211,0.115,0.078,southwest,2.2,No
2022/07/27,22:40,0.146,0.137,0.211,0.206,0.212,0.114,0.077,southwest,1.9,No
2022/07/27,22:50,0.146,0.136,0.211,0.207,0.211,0.115,0.076,southwest,2.0,No
2022/07/27,23:00,0.145,0.135,0.213,0.208,0.209,0.115,0.076,southwest,2.7,No
2022/07/27,23:10,0.143,0.136,0.213,0.205,0.211,0.114,0.075,west-southwest,3.1,Yes
2022/07/27,23:20,0.145,0.136,0.210,0.205,0.210,0.114,0.075,southwest,2.6,No
2022/07/27,23:30,0.145,0.135,0.211,0.208,0.210,0.114,0.076,southwest,2.2,No
2022/07/27,23:40,0.144,0.134,0.212,0.207,0.207,0.114,0.075,south-southwest,2.9,No
2022/07/27,23:50,0.142,0.137,0.210,0.206,0.211,0.113,0.075,south,2.7,No
